Cadillac, MI

3:43 PM EDT on July 22, 2017 (GMT -0400)
Wexford County

Weather History for KCAD - October, 2012

Change the Weather History Date:

Monday, October 15, 2012

  Actual Average Record
Temperature  
Mean Temperature 44 °F -  
Max Temperature 45 °F 56 °F 79 °F (1975)
Min Temperature 41 °F 38 °F 19 °F (1949)
Degree Days  
Heating Degree Days 22    
Moisture  
Dew Point 38 °F    
Average Humidity 83    
Maximum Humidity 89    
Minimum Humidity 72    
Precipitation  
Precipitation 0.00 in - - ()
Sea Level Pressure  
Sea Level Pressure 29.75 in    
Wind  
Wind Speed 14 mph (WNW)    
Max Wind Speed 22 mph    
Max Gust Speed 36 mph    
Visibility 10 miles    
Events Rain    
Averages and records for this station are not official NWS values.
T = Trace of Precipitation, MM = Missing Value Source: NWS Daily Summary

Daily Weather History Graph

Daily Weather History Graph

Search for Another Location

Airport or City:

Trip Planner

Search our weather history database for the weather conditions in past years. The results will help you decide how hot, cold, wet, or windy it might be!

Date:

Astronomy

Oct. 15, 2012 Rise Set
Actual Time 7:57 AM EDT 6:56 PM EDT
Civil Twilight 7:27 AM EDT 7:25 PM EDT
Nautical Twilight 6:54 AM EDT 7:59 PM EDT
Astronomical Twilight 6:20 AM EDT 8:33 PM EDT
Moon 8:08 AM EDT (10/15) 6:52 PM EDT (10/15)
Length of Visible Light 11h 58m
Length of Day
10h 59m
New Moon, 0% of the Moon is Illuminated
Oct 15
New Moon
Oct 21
First Quarter
Oct 29
Full
Nov 6
Last Quarter
Nov 13
New

Hourly Weather History & Observations

Time (EDT) Temp. Windchill Dew Point Humidity Pressure Visibility Wind Dir Wind Speed Gust Speed Precip Events Conditions
12:14 AM 45.1 °F 38.1 °F 41.9 °F 88% 29.49 in 3.0 mi WNW 16.1 mph 21.9 mph N/A Rain Light Rain
12:34 AM 45.1 °F 37.1 °F 41.5 °F 87% 29.50 in 10.0 mi WNW 20.7 mph 28.8 mph N/A   Overcast
1:14 AM 44.6 °F 36.9 °F 41.0 °F 87% 29.50 in 10.0 mi WNW 18.4 mph 35.7 mph N/A   Drizzle
1:34 AM 44.4 °F 35.9 °F 40.6 °F 87% 29.50 in 10.0 mi WNW 21.9 mph 29.9 mph N/A Rain Rain
1:54 AM 43.9 °F 36.2 °F 40.3 °F 87% 29.51 in 10.0 mi WNW 17.3 mph 28.8 mph N/A   Overcast
2:15 AM 43.9 °F 36.5 °F 40.1 °F 87% 29.53 in 10.0 mi WNW 16.1 mph 27.6 mph N/A   Overcast
2:34 AM 43.9 °F 36.8 °F 39.7 °F 85% 29.54 in 10.0 mi WNW 15.0 mph 25.3 mph N/A   Overcast
2:54 AM 43.9 °F 37.2 °F 40.1 °F 87% 29.55 in 10.0 mi WNW 13.8 mph 24.2 mph N/A   Drizzle
3:14 AM 43.9 °F 36.5 °F 40.1 °F 87% 29.55 in 10.0 mi WNW 16.1 mph 28.8 mph N/A Rain Rain
3:34 AM 43.9 °F 35.7 °F 40.5 °F 88% 29.56 in 10.0 mi WNW 19.6 mph 25.3 mph N/A   Drizzle
3:54 AM 43.9 °F 36.8 °F 40.5 °F 88% 29.57 in 10.0 mi WNW 15.0 mph 24.2 mph N/A   Drizzle
4:15 AM 43.2 °F 35.9 °F 39.9 °F 88% 29.57 in 10.0 mi WNW 15.0 mph 25.3 mph N/A   Drizzle
4:34 AM 42.8 °F 34.3 °F 39.6 °F 88% 29.57 in 10.0 mi WNW 19.6 mph 25.3 mph N/A Rain Rain
4:54 AM 42.8 °F 36.6 °F 39.2 °F 87% 29.59 in 10.0 mi WNW 11.5 mph - N/A   Light Drizzle
5:14 AM 42.8 °F 35.8 °F 39.4 °F 88% 29.60 in 10.0 mi WNW 13.8 mph 23.0 mph N/A   Light Drizzle
5:54 AM 42.4 °F 35.3 °F 39.2 °F 88% 29.61 in 10.0 mi WNW 13.8 mph 20.7 mph N/A   Light Drizzle
6:14 AM 42.4 °F 34.1 °F 39.2 °F 88% 29.62 in 10.0 mi WNW 18.4 mph 25.3 mph N/A   Light Drizzle
6:55 AM 42.4 °F 34.4 °F 39.2 °F 88% 29.64 in 10.0 mi WNW 17.3 mph 21.9 mph N/A Rain Rain
7:14 AM 42.4 °F 35.3 °F 39.2 °F 88% 29.65 in 10.0 mi WNW 13.8 mph 20.7 mph N/A   Drizzle
7:34 AM 42.4 °F 34.7 °F 39.2 °F 88% 29.65 in 10.0 mi WNW 16.1 mph 21.9 mph N/A   Drizzle
7:54 AM 42.4 °F 34.7 °F 39.2 °F 88% 29.66 in 10.0 mi WNW 16.1 mph 23.0 mph N/A Rain Light Rain
8:14 AM 42.4 °F 35.7 °F 39.2 °F 88% 29.67 in 10.0 mi WNW 12.7 mph 23.0 mph N/A Rain Light Rain
8:34 AM 42.4 °F 35.3 °F 39.2 °F 88% 29.68 in 10.0 mi WNW 13.8 mph 21.9 mph N/A Rain Light Rain
8:54 AM 42.4 °F 35.7 °F 39.2 °F 88% 29.69 in 10.0 mi WNW 12.7 mph 19.6 mph N/A Rain Light Rain
9:14 AM 42.4 °F 35.7 °F 39.2 °F 88% 29.70 in 10.0 mi WNW 12.7 mph - N/A Rain Light Rain
9:34 AM 42.4 °F 36.5 °F 39.2 °F 88% 29.71 in 10.0 mi WNW 10.4 mph 20.7 mph N/A Rain Rain
9:54 AM 42.4 °F 36.5 °F 39.2 °F 88% 29.72 in 10.0 mi WNW 10.4 mph 16.1 mph N/A Rain Rain
10:14 AM 42.8 °F 36.2 °F 39.7 °F 89% 29.73 in 10.0 mi WNW 12.7 mph 17.3 mph N/A Rain Rain
10:34 AM 43.7 °F 37.3 °F 40.5 °F 88% 29.74 in 10.0 mi WNW 12.7 mph 19.6 mph N/A   Drizzle
10:54 AM 43.5 °F 36.7 °F 40.3 °F 88% 29.75 in 10.0 mi NW 13.8 mph - N/A   Drizzle
11:34 AM 42.6 °F 35.2 °F 39.4 °F 88% 29.76 in 10.0 mi NW 15.0 mph 19.6 mph N/A   Drizzle
11:54 AM 42.4 °F 34.4 °F 39.4 °F 89% 29.77 in 10.0 mi NW 17.3 mph 21.9 mph N/A Rain Light Rain
12:14 PM 42.4 °F 34.7 °F 39.2 °F 88% 29.78 in 5.0 mi NW 16.1 mph 24.2 mph N/A Rain Light Rain
12:34 PM 42.4 °F 35.7 °F 39.2 °F 88% 29.78 in 10.0 mi NW 12.7 mph 17.3 mph N/A   Overcast
12:54 PM 42.4 °F 36.5 °F 38.8 °F 87% 29.79 in 10.0 mi WNW 10.4 mph 19.6 mph N/A   Overcast
1:14 PM 43.9 °F 37.9 °F 40.1 °F 87% 29.79 in 10.0 mi WNW 11.5 mph 19.6 mph N/A   Overcast
1:34 PM 43.9 °F 37.5 °F 39.7 °F 85% 29.80 in 10.0 mi WNW 12.7 mph - N/A   Overcast
1:54 PM 43.9 °F 38.3 °F 39.4 °F 84% 29.80 in 10.0 mi WNW 10.4 mph 18.4 mph N/A   Overcast
2:14 PM 44.6 °F 38.4 °F 39.2 °F 81% 29.80 in 10.0 mi WNW 12.7 mph 19.6 mph N/A   Overcast
2:34 PM 43.9 °F 36.8 °F 38.5 °F 81% 29.80 in 10.0 mi WNW 15.0 mph 18.4 mph N/A   Overcast
2:54 PM 43.9 °F 36.2 °F 38.5 °F 81% 29.81 in 10.0 mi NW 17.3 mph 23.0 mph N/A   Overcast
3:14 PM 43.9 °F 36.8 °F 38.5 °F 81% 29.82 in 10.0 mi WNW 15.0 mph 21.9 mph N/A Rain Light Rain
3:34 PM 42.8 °F 36.6 °F 37.8 °F 82% 29.82 in 10.0 mi WNW 11.5 mph - N/A   Overcast
3:54 PM 42.4 °F 37.0 °F 37.4 °F 82% 29.83 in 10.0 mi WNW 9.2 mph - N/A   Light Drizzle
4:14 PM 43.5 °F 38.9 °F 38.1 °F 81% 29.83 in 10.0 mi WNW 8.1 mph - N/A   Overcast
4:35 PM 43.9 °F 38.8 °F 37.6 °F 78% 29.84 in 10.0 mi WNW 9.2 mph 16.1 mph N/A   Overcast
4:54 PM 43.9 °F 38.8 °F 36.9 °F 76% 29.86 in 10.0 mi WNW 9.2 mph - N/A   Overcast
5:14 PM 43.9 °F 38.3 °F 36.7 °F 76% 29.85 in 10.0 mi WNW 10.4 mph - N/A   Overcast
5:35 PM 43.9 °F 39.9 °F 36.9 °F 76% 29.85 in 10.0 mi WNW 6.9 mph - N/A   Overcast
5:54 PM 43.9 °F 39.9 °F 37.4 °F 78% 29.86 in 10.0 mi NW 6.9 mph - N/A   Overcast
6:14 PM 43.9 °F 39.3 °F 37.4 °F 78% 29.87 in 10.0 mi WNW 8.1 mph - N/A   Overcast
6:35 PM 43.7 °F 38.6 °F 36.7 °F 76% 29.87 in 10.0 mi WNW 9.2 mph - N/A   Overcast
6:54 PM 42.8 °F 38.0 °F 35.8 °F 76% 29.88 in 10.0 mi WNW 8.1 mph - N/A   Overcast
7:14 PM 42.4 °F 37.5 °F 34.9 °F 75% 29.88 in 10.0 mi WNW 8.1 mph - N/A   Overcast
7:35 PM 42.4 °F 38.1 °F 34.0 °F 72% 29.89 in 10.0 mi WNW 6.9 mph - N/A   Overcast
7:54 PM 42.4 °F 37.5 °F 34.9 °F 75% 29.89 in 10.0 mi WNW 8.1 mph - N/A   Overcast
8:14 PM 42.4 °F 39.6 °F 35.2 °F 76% 29.89 in 10.0 mi WNW 4.6 mph - N/A   Overcast
8:34 PM 42.4 °F 38.8 °F 35.6 °F 77% 29.89 in 10.0 mi WNW 5.8 mph - N/A   Overcast
8:54 PM 42.4 °F 40.7 °F 35.8 °F 77% 29.89 in 10.0 mi NW 3.5 mph - N/A   Overcast
9:14 PM 42.4 °F 40.7 °F 36.3 °F 79% 29.90 in 10.0 mi West 3.5 mph - N/A   Overcast
9:34 PM 42.4 °F 40.7 °F 36.7 °F 80% 29.90 in 10.0 mi West 3.5 mph - N/A   Overcast
9:54 PM 42.4 °F 38.8 °F 36.7 °F 80% 29.91 in 10.0 mi West 5.8 mph - N/A   Overcast
10:14 PM 42.4 °F 38.1 °F 36.5 °F 79% 29.91 in 10.0 mi WNW 6.9 mph - N/A   Overcast
10:34 PM 42.3 °F 38.6 °F 36.0 °F 78% 29.91 in 10.0 mi WNW 5.8 mph - N/A   Overcast
10:54 PM 42.3 °F 38.6 °F 35.6 °F 77% 29.92 in 10.0 mi WNW 5.8 mph - N/A   Overcast
11:14 PM 42.4 °F 39.6 °F 35.1 °F 75% 29.92 in 10.0 mi NW 4.6 mph - N/A   Overcast
11:34 PM 42.1 °F 39.2 °F 35.2 °F 77% 29.92 in 10.0 mi WNW 4.6 mph - N/A   Overcast
11:54 PM 41.2 °F 38.2 °F 34.7 °F 78% 29.92 in 10.0 mi WNW 4.6 mph - N/A   Scattered Clouds